Погода в Ореле

Хотите узнать прогноз погоды в Ореле? Тогда Вам сюда: Погода в Ореле

Поиск расширенной информации на нашем сайте:

Полезная информация:

Новости сайта



02.01.2020
Опубликован Долгосрочный прогноз погоды по городам России и ближнего зарубежья на январь 2020 года.
Карты: Прогноз на январь и февраль 2020 года, Сравнение прогнозируемой аномалии приземной температуры воздуха на январь 2020 года по разным моделям.




Погода в Ореле - сегодня

Время (UTC), дата Ветер
(°,м/с) 
Видим.   Явления Облачность Т
(°С)
Тd
(°С)
f(%) Тe
(°С)
Pmin
(гПа)
dP
(гПа)
Po
(мм)
O2
(г/м3)
Тmin Tmax R s Состояние
почвы
03 30.11.20 150 (ЮВ) 10 км  в посл. час ливневой дождь  10/10 300 м кучево-дожд. 
[Cb calv]
+3.3 +2.7 96 +1  1025  751  298  +2.8    0.9     
06 30.11.20 140 (ЮВ) 5{10}  4000 м  слаб. ливневой дождь  10/10 300 м кучево-дожд. 
[Cb calv]
+2.9 +2.3 96 1025.9  0.9  751  299  +2.9      влажная 
09 30.11.20 150 (ЮВ) 4000 м  слаб. ливневой дождь  10/10 300 м кучево-дожд. 
[Cb cap]
+2.9 +2.2 95 +1  1026.6  0.6  752  299           
12 30.11.20 150 (ЮВ) 4000 м  слаб. ливневой дождь  10/10 300 м кучево-дожд. 
[Cb cap]
+2.6 +2.1 96 +1  1026.8  0.1  752  300           
15 30.11.20 140 (ЮВ) 4000 м  слаб. ливневой дождь  10/0 кучево-дожд. 
[Cb cap]
+2.1 +1.6 96 +1  1027.2  0.3  752  300         
18 30.11.20 140 (ЮВ) 4{10}  4000 м  слаб. ливневой дождь  10/10 300 м кучево-дожд. 
[Cb cap]
+1.5 +1.1 97 -1  1027.6  0.4  752  301    +3     
21 30.11.20 150 (ЮВ) 4000 м  дымка{ливн. осадки}  10/10 600 м кучево-дожд. 
[Cb calv]
+0.8 -0.1 94 -1  1028  0.3  753  302           
00 01.12.20 140 (ЮВ) 4000 м  дымка{ливн. осадки}  10/10 600 м кучево-дожд. 
[Cb calv]
+0.5 -0.4 94 1028.1  0.1  753  303           
03 01.12.20 140 (ЮВ) 10 км    10/10 600 м кучево-дожд. 
[Cb calv]
-0.2 -1.6 90 -1  1028.5  0.4  753  304  -0.3       
06 01.12.20 150 (ЮВ) 10 км    10/10 600 м кучево-дожд. 
[Cb calv]
-0.7 -2.3 89 -3  1029.5  0.9  754  305  -0.7    0.0    влажная 
09 01.12.20 140 (ЮВ) 10 км  слаб. ливневой снег  10/10 300 м кучево-дожд. 
[Cb calv]
-1.1 -2.3 92 -2  1030.3  0.8  754  305           
12 01.12.20 140 (ЮВ) 10 км  {ливн. осадки}  10/10 600 м кучево-дожд. 
[Cb calv]
-1.2 -2.7 90 -2  1030.8  0.8  755  306           
15 01.12.20 120 (ЮВ) 10 км    10/10 600 м кучево-дожд. 
[Cb calv]
-1.6 -3.1 89 -3  1032  1.1  755  307      0.0     
21 01.12.20 070 (В) 10 км    9/0 верхняя 
[Ci fib]
-3.4 -5.7 84 -5  1033.5  0.4  756  309           
00 02.12.20 110 (В) 10 км    9/0 верхняя 
[Ci fib]
-4.1 -6.6 83 -6  1033.8  0.2  757  310           
03 02.12.20 100 (В) 10 км    9/0 верхняя 
[Ci fib]
-5.2 -7.5 84 -8  1033.8  0.1  756  312  -5.2         
06 02.12.20 130 (ЮВ) 10 км    9/0 верхняя 
[Ci fib]
-6.5 -8.5 86 -9  1034.3  0.3  757  313  -6.5        замёрзшая 
09 02.12.20 130 (ЮВ) 10 км    9/1 600 м верхняя 
[Sc|Ci fib]
-4.6 -8.5 74 -7  1034.5  0.2  757  311           
12 02.12.20 140 (ЮВ) 10 км    8/0 средняя, верхняя 
[Ac trans|Ci fib]
-4 -8.5 71 -5  1033.6  -0.9  756  310           
15 02.12.20 090 (В) 10 км    10/10 600 м 
[Sc]
-3.9 -8 73 -5  1033.7  0.1  756  310           
18 02.12.20 120 (ЮВ) н/о    н/о 
-3.6 -6.5 80 -6  1032.8  756  309           
21 02.12.20 090 (В) 10 км    10/10 600 м кучево-дожд. 
[Cb calv]
-3.3 -6.5 78 -4  1033.4  756  309           
00 03.12.20 090 (В) 10 км    10/10 600 м кучево-дожд. 
[Cb calv]
-3.5 -6 83 -5  1033.3  -0.1  756  309           
03 03.12.20 090 (В) 10 км  слаб. ливневой снег  10/10 600 м кучево-дожд. 
[Cb calv]
-4.6 -6.2 89 -6  1033  -0.4  756  310  -4.6    0.3     
06 03.12.20 130 (ЮВ) 10 км  слаб. ливневой снег  10/10 600 м кучево-дожд. 
[Cb calv]
-4.9 -6.6 88 -6  1033.3  0.2  756  311  -5    0.7  <0.5  равномерный
сухой снег
100% 
Время (UTC), дата Ветер
(°,м/с) 
Видим.   Явления Облачность Т
(°С)
Тd
(°С)
f(%) Тe
(°С)
Pmin
(гПа)
dP
(гПа)
Po
(мм)
O2
(г/м3)
Тmin Tmax R s Состояние
почвы

Для получения пояснительной информации подведите курсор к названию столбца.

ПОГОДА в Ореле - архив

Всё, что Вы хотите узнать о погоде в Ореле - удобно и подробно!

Выберите нужную дату (начиная с 1 января 2019* года) и нажмите кнопку "Найти".
Будут отображены архивные сводки погоды по пункту Орел, начиная с указанной даты.


Отображать данные в формате CSV (для использования в таблицах Excel)


Внимание! Наш архив погоды предназначен исключительно для личного некоммерческого использования в познавательных целях. Если Вам необходимы официальные справки о состоянии погоды (для производственных, юридических, коммерческих и т.п. целей), обращайтесь в органы Росгидромета.

*Примечание: данная дата относится к архиву по метеостанциям СССР (Россия, СНГ, Балтия).
Архив по метеостанциям Зарубежной Европы и Азии (кроме Китая) хранится 10 дней, по другим регионам земного шара (Китай, Африка, Америка, Австралия, Океания) - 1 день.

Орел - район местоположения метеостанции


Название, широта, долгота, высота метеостанции:
Орел 52.9°ш. 36°д. 196 м над ур. моря [Российская Федерация]

Дополнительная информация

В oтличие oт бoльшинства пoгoдных сайтoв мы публикуем пoдрoбную метеoинфoрмацию в детальнoм прoфессиoнальнoм фoрмате.

Характеристики температуры и влажнoсти вoздуха измеряются на высoте 2 м в тени вдали oт зданий и деревьев.
Скoрoсть ветра измеряется на высoте 10 м (на урoвне рoста челoвека скoрoсть ветра ниже в 1.5-2 раза). Если метеoстанция нахoдится в гoрoде или в лесу, тo скoрoсть ветра занижена на 2-4 м/с пo сравнению с oткрытым местoм. Скoрoсть ветра над акватoриями крупных рек и oзёр, а также на вершинах хoлмoв на 2-5 м/с выше, чем в oбычных услoвиях.
Атмoсфернoе давление в разных тoчках местнoсти мoжет значительнo oтличаться oт давления на метеoстанции, в зависимoсти oт услoвий рельефа (при пoдъёме на 10 м давление пoнижается примернo на 1 мм рт.ст.).